Theta_e
291 291 291 291 290 290 290 290 290 290 290 290 289 289 289 289 289 288 288 288 288 288 288 288 288 287 287 287 287 287 287 287 287 287 287 286 286 286 286 286 286 286 286 286 287 287 287 287 287 287 287 287 287 287 287 287 287 287 287 286 287 286 286 285 285 285 286 286 287 287 287 287 287 288 288 288 288 288 288 289 289 289 289 289 290
291 291 290 290 290 290 290 290 290 290 289 289 289 289 289 288 288 288 288 288 288 288 288 288 288 287 287 287 287 287 287 287 286 286 286 286 286 286 286 286 286 286 286 286 286 286 286 286 286 286 286 286 286 286 286 286 286 286 286 286 286 286 285 285 284 285 286 286 286 287 287 287 287 287 287 287 288 287 288 288 288 288 289 289 289
291 290 290 290 290 290 290 290 289 289 289 289 289 289 289 288 288 288 288 288 288 288 288 288 287 287 287 287 287 287 287 286 286 286 286 286 286 286 286 286 286 286 286 286 286 286 286 286 286 286 286 286 286 286 286 286 285 286 286 285 285 285 285 284 283 283 284 285 285 285 285 286 287 287 287 287 287 287 287 287 287 287 288 288 288
290 290 290 290 290 290 289 289 289 289 288 288 288 288 288 288 288 288 288 287 287 287 287 287 287 287 287 287 287 287 286 286 286 285 285 285 285 285 285 285 285 285 285 285 285 285 285 285 285 285 285 285 285 285 285 285 285 285 285 284 284 284 283 282 282 282 282 283 284 284 284 284 285 286 287 287 287 287 287 287 287 287 287 287 287
290 290 290 290 290 289 289 289 289 288 288 288 288 288 287 287 287 287 287 287 287 287 287 287 287 287 287 287 286 286 285 285 285 285 285 285 285 285 285 285 285 285 285 285 285 285 285 285 285 285 285 285 285 285 285 285 285 284 284 284 283 282 282 281 281 281 281 282 283 283 283 283 283 284 285 286 286 286 286 286 286 287 287 287 287
290 290 290 290 289 289 289 288 288 288 288 288 288 287 287 287 287 287 287 287 287 287 287 287 287 287 287 286 286 285 285 284 284 284 284 284 284 284 284 284 285 285 285 285 285 285 285 285 285 285 285 285 285 285 285 284 284 284 284 283 282 281 281 281 280 280 280 280 281 281 281 282 282 282 283 284 284 285 286 286 286 286 286 286 287
290 290 290 289 289 289 289 288 288 288 288 287 287 287 287 287 287 287 287 286 287 287 287 287 287 287 286 286 285 284 284 284 284 284 284 284 284 284 284 284 284 284 284 284 284 284 284 284 284 284 284 284 284 284 284 283 283 283 283 282 281 281 280 280 279 279 279 279 279 280 280 281 281 282 282 283 283 283 284 284 285 286 286 286 286
290 290 290 289 289 289 289 288 288 288 287 287 287 287 287 287 286 286 286 286 286 287 287 287 286 286 285 285 284 284 284 284 284 284 284 284 284 284 284 284 284 284 284 284 284 284 284 284 284 284 284 284 283 283 282 282 282 282 281 280 280 279 279 279 278 277 277 278 278 279 279 280 281 281 282 282 282 283 283 283 283 284 285 284 285
290 290 290 289 289 289 289 289 288 288 287 287 287 287 287 286 286 286 286 286 286 286 286 286 286 285 284 284 284 284 284 283 283 283 283 284 284 284 284 284 284 284 284 284 284 284 284 284 284 283 283 283 282 281 281 280 280 280 280 279 278 278 277 276 276 276 277 277 278 279 279 279 280 281 281 282 282 282 282 282 282 283 284 284 284
290 290 290 290 289 289 289 289 288 288 288 287 287 287 286 286 286 286 286 286 286 286 286 285 285 284 284 284 284 283 283 283 283 283 283 283 283 283 283 283 283 283 283 283 283 283 283 283 283 282 282 281 281 280 280 279 278 278 277 277 276 276 275 275 274 275 275 276 277 278 278 279 280 280 281 281 282 282 283 283 283 283 283 283 284
290 290 290 290 289 289 289 289 288 288 288 288 287 287 286 286 286 286 286 286 286 286 285 284 284 283 283 283 283 283 283 283 283 283 282 282 282 282 282 283 283 283 283 283 283 282 282 282 281 281 280 280 279 279 279 278 277 277 276 276 275 274 274 274 274 274 274 275 275 276 276 277 277 278 279 279 280 281 282 283 283 283 284 284 284
290 290 290 290 289 289 289 289 288 288 288 288 288 287 286 286 286 286 286 286 286 285 284 283 283 283 283 283 283 283 283 283 282 282 282 282 282 282 282 282 282 282 282 282 281 281 280 280 280 279 279 279 278 278 277 277 277 276 276 275 273 273 272 273 273 274 274 275 275 275 275 275 276 276 277 277 278 278 279 280 280 281 282 282 283
290 290 290 290 289 289 289 288 288 288 288 288 288 287 286 286 286 286 286 286 285 284 283 283 283 283 283 283 283 283 282 282 282 282 281 281 281 281 281 281 281 281 281 280 280 279 279 278 278 278 278 277 277 276 276 276 276 275 274 273 272 272 272 272 272 273 273 274 274 274 275 275 275 275 276 276 277 277 278 278 279 279 280 280 281
290 290 290 289 289 289 288 288 288 288 288 288 287 287 286 286 286 286 286 285 284 283 283 283 283 283 283 283 283 282 282 282 281 281 281 281 280 280 280 280 280 280 279 279 278 278 277 277 277 277 277 276 276 275 275 275 274 273 272 272 272 272 272 272 272 273 273 273 273 274 274 274 275 275 275 276 276 277 277 278 278 279 279 279 280
290 290 289 289 289 288 288 288 288 288 287 287 287 286 286 285 285 285 285 284 283 283 283 283 283 283 283 282 282 282 281 281 281 280 280 280 280 280 280 279 279 279 278 278 277 277 276 276 276 276 275 275 275 274 274 273 272 271 271 272 272 272 272 273 273 273 273 273 274 274 274 274 274 275 275 276 276 277 277 278 278 278 279 279 280
290 290 289 289 289 288 288 288 287 287 287 287 286 286 286 285 285 285 284 283 282 282 283 283 283 282 282 282 282 282 281 280 280 280 280 280 279 279 279 278 278 277 277 276 276 276 275 275 274 274 274 274 275 274 273 272 271 272 272 273 273 273 273 274 274 274 274 274 274 274 274 275 275 275 276 276 277 277 277 277 277 278 278 278 279
290 289 289 289 288 288 288 287 287 287 287 286 286 286 285 285 285 284 283 282 282 282 282 283 282 282 282 282 282 282 281 280 280 280 279 279 279 278 278 277 277 277 276 276 275 274 274 273 273 273 274 274 274 273 273 272 272 273 273 273 273 273 274 275 275 275 275 275 275 275 275 275 276 276 276 276 276 276 276 276 276 276 276 277 277
290 289 289 289 288 288 287 287 287 287 286 286 286 286 285 285 284 283 282 282 282 282 282 282 282 282 282 281 281 281 280 280 279 279 279 278 278 277 277 276 276 276 275 275 274 273 272 272 273 273 273 273 273 273 273 273 273 274 274 274 274 275 275 275 276 275 276 276 276 276 276 276 276 276 275 275 276 276 276 276 276 276 275 276 276
290 289 289 288 288 288 287 287 287 286 286 286 286 285 285 285 284 282 282 282 282 282 282 282 282 282 281 281 280 280 280 279 279 279 278 278 277 276 276 276 275 275 275 274 272 272 271 271 272 273 273 273 273 273 273 274 274 275 275 275 275 275 276 276 276 276 276 276 276 276 276 275 275 275 274 275 275 275 275 275 275 275 275 275 275
289 289 288 288 288 288 287 287 286 286 286 286 286 285 285 284 283 282 281 282 282 282 282 282 282 281 281 280 280 279 279 279 278 278 278 277 276 276 275 275 275 275 273 272 271 271 270 270 272 273 273 273 273 274 274 275 276 276 276 276 276 276 276 276 276 276 276 276 276 275 275 275 274 274 274 274 274 274 274 274 274 274 275 275 275
289 289 288 288 288 287 287 286 286 286 286 286 285 285 284 283 282 281 281 281 281 281 281 281 281 281 280 280 279 278 278 278 278 278 277 277 276 275 275 275 274 273 272 271 270 270 270 270 271 272 273 273 274 274 275 276 276 276 276 276 276 276 276 276 276 276 275 275 275 274 274 275 275 275 275 274 274 274 273 274 274 274 274 274 275
289 288 288 288 287 287 286 286 285 285 285 285 285 285 283 282 281 281 281 281 281 281 281 281 281 281 280 279 278 278 278 278 278 277 277 276 276 275 275 274 273 271 271 271 271 271 271 271 271 272 272 273 274 275 276 277 277 276 276 276 276 276 276 276 275 275 275 274 274 274 275 275 276 276 275 275 274 274 273 273 273 273 273 274 274
288 288 288 287 287 286 286 285 285 285 285 285 285 284 282 281 281 280 280 280 280 280 280 280 280 280 279 279 278 278 277 277 277 277 276 276 276 275 275 274 272 271 271 271 271 271 271 271 272 272 273 273 274 275 276 276 276 276 275 276 276 276 276 275 275 274 274 274 274 274 275 276 276 276 275 275 274 273 273 273 273 273 273 273 274
288 287 287 287 286 286 285 285 285 285 285 285 284 283 281 280 280 280 280 280 280 280 279 279 279 279 279 278 278 277 277 277 277 277 276 276 276 275 274 273 272 271 271 271 271 271 271 272 272 273 274 274 274 275 275 275 275 274 274 274 275 275 275 274 274 274 274 274 275 275 276 276 276 276 275 275 274 273 273 273 273 273 273 274 274
288 287 287 286 286 285 285 284 285 285 285 284 284 282 281 280 280 280 279 279 279 279 278 278 278 278 278 278 278 277 277 277 277 276 276 276 275 275 274 272 271 271 271 271 271 272 272 273 273 273 273 273 273 273 273 273 274 274 274 274 274 274 274 274 274 274 274 275 275 276 276 276 276 276 275 275 274 274 273 273 273 273 273 274 274
287 287 287 286 286 285 285 284 284 284 284 284 283 281 280 280 280 279 279 278 278 278 277 277 277 277 277 277 277 276 276 276 276 276 276 275 275 274 273 271 270 271 271 271 271 272 272 272 272 272 272 272 272 273 273 273 274 274 274 274 274 274 274 274 274 274 275 275 275 275 276 276 276 276 276 275 275 274 274 273 273 273 273 273 273
287 287 286 286 286 285 284 284 284 284 284 283 281 280 279 279 279 279 278 278 277 277 277 277 277 276 276 276 276 276 276 276 276 275 275 275 274 272 271 271 271 271 271 271 271 272 272 272 272 272 272 272 273 273 273 274 274 274 275 275 275 274 274 274 274 274 274 274 274 274 275 275 276 276 276 276 275 275 274 274 274 274 274 274 273
287 287 287 286 285 285 284 284 284 284 283 282 280 279 279 279 279 278 277 277 277 276 276 276 276 276 275 276 276 276 276 275 275 274 274 273 271 270 270 270 270 271 271 272 272 273 273 273 273 273 273 274 274 274 274 274 274 274 274 274 274 274 274 274 274 274 274 273 273 274 274 275 275 276 276 276 275 275 275 274 274 274 274 274 274
287 287 286 286 285 285 284 284 284 284 282 280 279 279 278 278 278 277 276 276 276 276 276 276 276 275 275 275 274 274 275 274 274 273 272 271 270 270 270 270 270 271 272 272 273 273 274 274 274 274 274 274 274 274 274 274 273 273 273 273 273 274 273 273 273 273 273 273 273 273 274 274 275 275 275 275 275 275 275 275 275 275 275 275 275
287 287 286 285 285 285 284 284 284 283 281 280 279 278 278 277 277 277 276 275 275 275 275 275 274 274 274 273 273 273 273 273 273 273 272 270 270 270 270 270 271 271 272 272 272 273 273 273 273 273 273 273 273 273 273 273 273 273 273 273 273 273 273 273 273 272 273 273 273 273 273 274 274 273 273 273 274 274 275 275 275 275 275 275 275
287 286 285 285 285 284 284 284 283 281 280 279 279 278 277 276 276 276 276 275 274 274 274 274 273 272 272 272 273 273 273 272 272 272 271 270 270 270 271 272 272 271 271 272 272 272 272 272 272 272 272 272 272 271 271 271 271 271 272 272 272 272 272 272 272 272 272 272 272 273 273 273 273 272 272 272 273 274 274 275 275 275 275 275 275
286 285 285 284 284 284 283 282 281 279 279 278 278 278 277 276 275 275 274 274 274 273 273 273 273 272 272 272 272 272 272 272 272 271 270 269 270 271 272 272 271 271 271 271 271 271 272 272 272 272 272 271 271 270 270 270 270 269 270 270 271 271 271 271 271 271 271 271 272 272 272 272 272 271 271 271 272 273 273 274 274 275 275 275 275
285 284 284 284 284 283 282 280 279 278 278 278 277 277 276 276 275 274 274 274 273 273 272 272 272 272 272 272 272 272 272 272 272 271 270 270 271 271 271 271 271 271 271 271 271 271 272 271 271 271 271 271 270 270 270 269 269 269 269 269 269 270 270 270 270 270 271 271 271 271 271 271 271 271 270 271 272 272 273 273 274 274 275 275 275
284 284 284 284 283 281 280 279 278 278 277 277 276 276 275 275 275 274 274 273 273 273 272 272 272 272 272 272 272 272 271 271 271 271 271 271 271 271 271 271 271 270 271 271 271 271 271 271 271 271 271 271 270 270 270 270 269 269 269 269 269 269 269 270 270 270 270 271 271 271 271 271 270 270 270 271 272 272 273 273 273 274 274 275 275
284 284 283 283 281 280 278 278 277 277 276 276 275 275 274 274 273 273 273 272 272 273 272 272 272 272 272 272 272 272 271 271 271 271 271 271 271 271 271 271 271 271 271 271 271 271 271 271 271 271 271 271 270 270 270 270 270 270 269 269 269 269 269 269 270 270 270 270 270 270 270 270 271 271 271 271 271 272 272 272 273 273 274 275 275
283 283 283 281 280 278 277 277 276 276 275 275 274 274 273 273 272 272 271 271 272 272 272 272 272 272 271 271 272 271 271 270 270 270 270 270 270 271 271 271 271 271 271 271 271 271 270 271 271 271 271 271 270 270 270 270 270 270 270 270 269 269 269 269 269 269 269 270 270 270 270 270 271 271 271 271 271 271 272 272 272 273 273 274 275
283 282 281 279 278 277 277 276 275 275 274 274 273 273 272 272 271 271 271 271 271 271 272 272 272 272 271 271 271 271 271 270 270 270 270 270 270 270 270 271 271 271 271 271 271 271 271 270 270 270 270 270 270 270 270 270 270 270 271 270 269 269 268 268 268 268 269 269 270 270 270 270 270 270 270 271 271 271 272 272 273 273 273 274 275
282 280 279 278 277 277 276 275 275 274 274 273 272 272 271 271 271 270 270 270 270 271 271 271 272 271 271 271 271 271 271 270 270 270 269 269 269 270 270 270 271 271 271 271 271 271 271 271 270 270 270 270 270 270 270 270 270 271 271 271 270 268 268 267 267 268 268 269 269 269 270 270 270 270 270 270 271 271 272 272 272 273 274 274 274
280 279 278 277 277 276 275 274 274 273 273 272 271 271 270 270 270 270 270 270 270 270 271 271 271 271 271 270 270 270 270 270 270 270 270 269 269 269 269 270 270 270 270 270 270 271 271 270 271 270 270 270 270 270 270 270 270 271 271 271 270 268 267 267 268 268 269 269 269 270 270 270 270 270 270 270 271 271 271 272 272 273 274 274 274
279 278 277 276 276 275 274 274 273 272 272 271 271 270 270 270 270 269 269 270 270 270 270 271 271 270 270 270 270 270 270 270 270 270 270 269 269 269 269 269 269 270 270 270 270 270 270 270 270 270 270 270 270 270 270 270 270 271 271 271 269 268 268 268 268 268 269 269 270 270 270 270 270 270 270 270 271 271 271 272 273 273 273 274 274
277 277 276 275 275 274 273 273 272 272 271 271 270 270 270 269 269 269 269 269 269 270 270 270 270 270 270 270 269 269 269 269 269 269 269 269 269 268 269 269 269 269 269 269 270 270 270 270 270 270 270 270 270 270 270 270 270 270 271 271 271 269 269 269 268 269 269 270 270 270 270 270 270 270 270 270 271 271 272 272 273 273 273 274 274
277 276 275 274 274 273 272 272 271 271 271 270 270 270 270 269 269 269 269 269 269 269 269 270 270 270 269 269 269 269 269 269 269 269 269 269 269 268 268 268 268 269 269 269 269 269 270 270 269 269 269 269 270 270 270 270 270 270 271 271 271 270 269 269 269 269 269 270 270 270 270 270 270 270 270 270 271 271 271 272 272 273 273 273 274
276 275 274 273 273 272 272 271 271 271 270 270 270 270 269 269 269 269 269 269 268 269 269 269 269 269 269 269 268 268 268 268 268 268 269 269 269 269 269 269 269 269 268 269 269 269 269 269 269 269 269 269 269 269 269 269 269 270 270 271 271 270 270 269 269 269 269 270 270 270 270 270 271 270 271 271 271 271 271 272 272 272 273 273 273
275 274 273 273 272 271 271 271 271 270 270 270 269 269 269 269 269 269 268 268 268 268 268 268 269 269 269 268 268 268 268 268 268 268 269 269 269 269 269 269 269 269 269 269 269 269 269 269 269 269 269 269 269 269 269 269 269 269 269 270 270 270 269 269 268 268 269 269 270 270 270 270 271 271 271 271 271 271 271 271 271 272 272 272 272
274 273 273 272 271 271 271 270 270 270 269 269 269 269 269 269 269 268 268 268 268 268 268 268 268 268 269 268 268 268 268 268 268 268 268 269 269 269 269 269 269 269 269 269 269 269 269 269 269 269 269 269 269 269 269 269 269 269 269 269 270 270 269 268 268 268 268 269 269 270 270 270 270 271 271 271 271 271 271 271 271 271 272 272 272
273 272 272 271 271 270 270 269 269 269 269 269 269 269 268 268 268 268 268 268 268 268 268 268 267 268 268 268 268 268 268 268 268 268 268 268 268 269 269 269 269 269 269 269 269 269 269 269 269 269 269 269 269 269 269 269 269 269 269 269 269 269 269 268 268 268 268 268 269 269 269 270 270 270 271 271 271 271 271 271 271 271 271 271 271
272 272 271 270 270 270 269 269 269 269 269 268 268 268 268 268 268 268 267 268 268 268 268 268 267 267 267 267 267 267 268 268 268 268 268 268 268 268 268 269 269 269 269 269 269 269 269 269 269 269 269 269 269 269 269 269 269 269 269 269 269 269 269 269 268 268 268 268 268 269 269 270 270 270 271 271 271 271 271 271 271 271 271 271 271
271 271 270 270 269 269 269 268 268 268 268 268 268 268 268 268 268 268 267 267 267 267 267 267 267 267 267 267 267 267 267 267 267 267 268 268 268 268 268 268 269 269 269 269 269 269 269 269 269 269 269 269 269 269 269 269 269 269 269 269 269 269 269 269 269 267 267 268 268 268 269 269 270 270 270 271 271 271 271 271 271 271 271 271 271
271 270 270 269 269 269 268 268 268 268 268 268 268 268 268 268 267 267 267 267 267 267 267 267 267 267 267 267 267 267 267 267 267 267 267 267 267 267 267 268 268 268 269 269 269 269 269 269 269 269 269 269 269 269 269 269 269 269 269 269 269 269 269 269 268 267 267 267 268 268 269 269 270 270 270 270 270 271 271 271 271 271 271 271 271
270 270 269 269 269 268 268 268 268 268 268 268 267 267 267 267 267 267 267 267 267 267 267 267 267 267 267 267 267 267 267 267 267 267 267 267 267 267 267 267 267 267 268 268 268 268 268 268 268 268 268 268 269 269 269 269 269 269 269 269 269 268 268 269 268 267 266 267 267 268 268 269 269 269 270 270 270 270 270 271 271 271 271 271 271
270 269 269 269 268 268 268 268 268 267 267 267 267 267 267 266 266 266 266 266 266 267 267 266 266 266 266 266 266 266 267 267 267 267 267 267 267 267 267 267 267 267 267 267 267 267 267 267 267 267 268 268 268 268 268 268 268 268 268 268 269 268 268 268 267 267 267 266 267 267 267 268 268 269 269 269 270 270 270 270 270 270 271 271 271
Wind_Speed
6 5 3 2 2 2 4 6 7 9 11 13 14 15 16 16 17 18 18 19 19 19 20 20 20 20 21 21 22 22 23 24 25 26 27 27 28 29 30 31 32 33 33 34 35 36 37 38 39 40 40 41 42 42 42 42 43 43 42 43 43 42 42 41 43 53 57 53 52 53 51 50 51 50 49 50 49 47 46 45 44 43 42 41 39
6 4 3 1 2 3 5 8 10 11 13 14 15 16 17 18 19 20 21 21 22 23 23 23 23 24 24 24 24 24 25 26 26 27 28 29 30 31 32 33 34 35 36 37 37 38 39 40 41 42 42 43 44 44 45 45 44 45 45 44 45 44 42 41 43 49 56 56 54 54 53 50 51 51 49 49 50 49 49 48 47 46 45 44 43
6 4 2 1 3 5 7 9 11 13 14 15 17 18 19 20 20 21 22 23 23 24 24 25 25 26 26 26 27 27 27 28 29 30 31 32 33 34 35 36 37 38 38 39 40 40 41 42 43 44 44 45 46 46 46 46 46 46 47 46 46 46 44 41 42 45 52 56 54 53 53 50 51 52 50 50 51 50 51 51 49 48 47 46 45
6 5 3 3 4 6 9 11 13 14 15 16 17 18 19 20 21 22 22 23 24 24 24 25 25 26 26 27 28 28 29 30 31 32 33 34 36 36 37 38 39 40 40 41 41 42 43 44 44 45 46 46 47 47 47 47 47 47 48 47 46 47 46 43 42 43 47 53 55 53 52 50 50 51 50 50 51 50 50 51 50 49 48 47 47
7 5 4 4 6 8 10 12 14 15 16 17 18 19 20 21 22 23 24 24 25 25 25 26 26 27 27 28 28 29 30 32 33 34 35 36 37 37 38 38 39 39 40 41 41 42 43 44 44 44 45 46 47 48 48 48 48 48 48 48 46 46 46 44 42 42 43 49 55 54 51 49 48 49 49 48 50 51 50 50 49 48 49 48 47
8 6 5 5 7 9 11 13 15 16 17 18 19 20 22 23 24 25 26 26 27 27 27 27 28 28 28 29 30 30 32 33 34 35 36 37 37 38 38 39 39 39 39 40 40 41 42 43 44 44 45 46 47 47 48 48 48 49 48 47 46 45 46 45 43 41 42 46 51 52 50 47 45 47 47 43 44 48 49 49 48 48 48 49 48
8 7 6 6 8 10 12 14 16 17 18 19 20 22 23 25 26 26 27 27 27 28 28 28 28 29 29 30 31 32 33 35 35 36 37 37 38 39 39 39 40 40 40 40 40 41 41 42 43 44 44 45 45 46 46 46 47 47 47 46 45 44 44 45 42 40 41 45 48 49 48 44 40 40 38 34 36 43 44 45 48 48 46 46 46
9 8 8 8 10 11 13 15 17 18 19 20 22 23 24 25 26 26 27 27 27 28 28 28 28 29 30 31 32 33 34 35 36 37 37 38 39 39 40 40 41 42 42 42 41 41 42 42 43 43 44 44 44 43 43 43 43 44 44 42 42 42 41 42 41 39 39 42 47 48 46 41 36 32 29 25 27 34 36 36 43 48 46 45 47
10 10 10 11 12 13 14 16 18 19 20 22 24 25 26 26 26 26 27 27 27 27 27 28 28 29 30 32 33 34 34 35 36 37 37 38 39 40 40 41 41 42 42 42 42 42 43 43 43 44 43 43 42 41 40 39 38 38 38 37 38 38 37 38 37 35 34 37 41 43 40 37 33 28 26 24 24 28 30 31 37 44 43 41 44
12 12 13 13 13 14 16 18 19 21 22 24 26 27 28 27 27 26 26 27 27 27 27 28 29 30 31 32 33 34 34 35 35 36 37 37 38 39 40 41 41 42 42 43 43 43 43 44 43 43 42 41 40 39 37 36 33 32 31 31 31 33 34 35 35 33 31 32 35 34 32 33 30 25 25 24 22 23 26 26 30 34 34 33 38
14 14 14 14 15 16 18 19 20 22 24 26 28 30 30 28 27 27 27 27 27 27 27 28 30 31 32 33 34 34 34 34 35 36 36 36 37 38 39 40 41 42 42 43 44 44 43 43 42 42 41 39 38 37 34 32 30 28 26 25 24 24 26 29 31 30 28 31 34 34 33 34 33 29 28 28 26 25 25 24 25 27 28 28 32
16 16 16 16 17 18 19 20 21 23 25 28 30 32 31 29 28 28 28 27 27 27 28 29 31 32 32 33 34 34 34 34 34 35 35 35 35 37 38 40 40 41 42 42 42 43 42 42 40 39 37 35 34 32 30 28 26 24 23 21 20 20 20 22 25 27 27 29 34 35 32 32 34 32 29 29 30 31 32 32 32 33 34 34 35
18 18 17 18 19 19 20 22 22 24 26 29 31 33 32 30 29 29 28 28 28 28 29 30 31 32 33 34 34 34 34 34 34 35 35 35 35 36 38 39 40 40 41 40 41 40 40 39 38 36 34 31 29 27 25 25 23 22 21 20 20 20 20 21 23 25 27 29 32 35 31 28 31 31 26 25 28 29 30 31 31 32 36 39 42
20 20 20 20 20 21 22 23 23 25 27 29 32 33 32 30 29 29 29 28 29 29 30 31 31 32 33 34 35 35 34 34 35 35 35 35 35 36 37 38 39 39 39 39 39 38 37 37 36 33 31 27 24 22 22 22 23 23 23 24 25 26 26 26 24 24 25 26 29 33 31 28 30 30 27 26 28 30 31 32 33 33 35 38 40
23 23 22 21 21 22 23 23 24 25 27 30 32 33 31 30 30 29 29 29 29 30 30 31 32 33 34 34 35 35 34 34 35 35 35 35 35 36 37 38 38 38 38 37 37 36 36 35 32 30 28 25 22 20 21 22 24 26 28 30 31 31 30 28 25 23 24 25 28 31 31 29 30 31 30 28 29 32 33 34 36 36 36 37 39
25 24 23 22 23 24 25 24 25 26 28 31 32 32 31 30 30 29 29 29 30 30 31 31 32 33 34 34 35 35 34 34 35 35 35 35 35 36 37 37 38 38 37 36 35 35 34 31 29 28 27 24 20 18 19 22 26 29 32 32 32 32 30 27 26 26 27 28 29 30 30 30 30 30 30 29 29 31 33 36 37 36 36 37 37
27 25 23 23 24 25 25 25 26 28 30 32 33 32 31 31 30 30 30 30 30 30 31 32 33 34 34 34 35 36 35 34 35 35 34 34 35 36 36 37 37 37 36 34 33 33 31 28 27 27 26 23 21 19 20 23 28 30 31 32 32 32 31 31 31 31 31 30 29 29 29 30 30 30 29 29 29 29 31 34 35 35 38 39 38
27 24 23 25 26 26 26 27 28 29 30 32 33 32 32 31 30 30 30 31 30 30 31 32 33 34 34 34 35 36 36 35 34 34 33 33 34 34 35 36 36 36 35 33 32 30 29 28 26 26 26 24 22 23 24 26 29 30 31 33 34 35 35 35 35 34 33 31 29 27 26 27 29 31 32 31 29 27 29 31 30 31 36 39 39
26 24 25 26 26 27 28 28 29 30 31 32 33 32 32 31 30 30 30 31 30 31 31 32 33 34 34 34 34 35 36 35 34 34 33 32 32 32 33 34 34 34 33 31 30 30 29 30 29 27 26 24 23 25 27 26 28 29 30 33 36 38 38 37 35 34 33 30 28 26 27 30 34 37 36 33 30 28 29 31 30 31 34 36 35
25 25 26 26 27 29 29 29 30 30 31 33 33 32 32 31 30 31 31 30 30 31 32 32 33 34 34 34 34 34 35 35 33 33 33 32 31 30 30 31 31 31 30 30 31 31 30 31 31 29 27 25 22 23 24 23 24 28 31 34 37 38 37 35 33 32 31 29 29 30 34 36 37 38 37 35 33 32 31 30 29 29 31 33 31
26 26 27 27 29 30 30 30 30 30 32 33 33 32 31 30 31 31 31 31 31 31 32 32 33 34 34 34 33 33 33 33 33 32 31 30 29 27 27 28 28 29 30 30 29 30 31 32 33 30 28 25 21 22 23 24 25 29 32 34 36 35 33 32 32 32 32 32 33 34 35 35 35 36 36 36 34 32 30 29 29 29 30 31 32
26 27 27 28 29 30 30 30 30 31 32 33 32 32 31 31 31 31 31 31 31 31 32 32 33 34 34 33 33 32 32 32 31 30 29 28 26 24 23 24 24 25 27 28 29 30 31 32 32 30 28 26 25 26 27 27 29 32 33 33 34 34 33 32 31 31 33 34 35 34 33 33 34 33 32 31 30 29 28 28 29 29 29 30 31
27 27 28 29 29 30 30 29 30 31 33 33 32 32 31 31 31 31 30 31 31 31 31 32 33 34 34 33 32 31 30 30 29 28 26 25 23 22 21 20 20 21 25 27 29 30 30 30 31 30 29 30 30 30 29 30 31 32 32 31 31 30 31 32 32 33 34 34 33 33 32 31 30 29 28 28 28 28 28 28 29 29 31 32 33
27 27 28 29 29 30 29 29 31 32 33 33 32 31 31 31 31 30 30 30 31 31 31 32 33 34 34 34 33 31 30 29 27 25 24 23 23 22 21 20 20 21 24 27 28 29 30 31 31 31 30 31 31 30 29 30 31 32 32 31 30 31 32 33 33 33 33 31 30 30 30 29 28 29 29 29 29 29 29 29 29 29 31 33 33
27 27 28 29 29 30 30 30 32 32 32 32 32 31 31 31 30 30 29 29 30 31 31 31 32 33 34 34 34 32 30 28 26 24 23 23 22 22 22 22 22 22 24 27 28 29 29 29 29 29 29 29 28 29 30 32 33 33 32 32 31 32 32 31 30 29 29 28 29 30 30 29 29 29 29 29 29 30 30 30 31 31 31 32 33
27 27 28 29 30 30 30 31 32 32 32 32 31 31 31 31 30 29 29 29 29 30 30 31 31 32 33 33 33 32 29 26 25 23 23 23 22 22 23 25 24 24 24 26 27 28 28 29 30 30 29 27 28 30 31 31 31 31 30 29 28 28 28 28 28 27 27 28 29 30 30 31 30 30 29 29 28 29 29 30 31 31 32 33 34
26 26 28 29 30 31 31 31 32 32 32 31 31 31 31 30 30 29 28 28 29 29 29 30 30 31 32 32 31 30 27 25 23 22 22 23 23 24 26 28 26 25 26 28 29 30 31 31 31 30 28 28 28 29 29 28 28 28 27 26 26 26 25 26 27 27 28 29 29 31 31 31 31 30 29 28 28 28 28 28 30 32 32 33 33
25 26 28 30 31 31 32 32 32 32 31 31 31 31 30 29 29 29 27 28 29 29 29 29 29 29 30 30 29 28 26 23 22 22 22 22 23 25 26 26 26 27 28 29 30 29 29 28 28 27 27 27 28 28 28 28 27 26 25 25 25 25 25 25 26 26 27 28 28 29 30 30 29 29 28 28 29 28 27 27 29 31 30 31 33
25 27 28 30 31 32 32 33 33 32 31 31 31 30 29 28 29 28 26 25 27 28 28 28 28 28 28 28 27 27 26 23 20 19 19 19 21 23 24 24 26 28 28 28 28 27 26 26 26 26 26 26 26 26 26 26 25 25 24 24 24 25 25 25 25 25 26 26 27 27 27 27 27 26 27 28 29 29 28 27 28 30 30 31 34
26 27 28 30 32 33 33 33 32 32 31 31 30 29 28 27 28 28 26 24 24 25 26 26 26 25 26 26 24 24 24 22 19 17 16 17 19 21 22 23 25 26 26 26 26 26 26 24 24 24 23 23 23 23 23 24 24 24 24 23 23 23 23 24 24 25 25 25 25 26 25 26 26 26 27 29 30 30 28 26 27 29 30 31 33
27 28 28 30 32 32 32 31 31 31 31 31 30 29 28 25 24 25 26 25 23 22 23 24 23 21 21 22 22 21 19 18 17 16 15 17 19 21 21 22 23 24 26 26 25 24 23 22 21 21 21 21 22 22 22 23 23 23 23 23 22 22 22 23 23 24 25 25 26 25 25 25 25 25 26 28 30 30 29 28 27 27 28 29 31
28 28 28 30 31 31 30 30 30 30 30 30 29 29 29 26 22 20 21 23 22 20 20 21 21 20 19 19 20 19 17 15 15 14 14 17 19 20 20 21 21 23 24 24 22 22 21 21 20 21 21 22 23 23 23 23 23 24 24 24 23 22 22 22 22 23 24 25 26 26 25 25 25 25 26 28 29 29 28 28 28 28 28 29 30
28 28 28 29 30 30 29 29 29 29 29 28 28 28 28 28 25 21 18 18 19 19 19 18 19 19 16 16 17 17 16 14 13 13 14 17 18 18 18 19 19 21 22 21 20 20 20 20 21 22 22 23 23 24 24 24 24 24 24 24 24 23 22 21 21 22 22 23 24 26 26 26 25 26 27 28 29 28 28 27 27 27 28 29 30
27 27 28 29 29 29 29 29 29 29 28 27 27 26 26 26 25 23 20 17 16 16 15 16 17 17 15 13 14 15 14 13 12 13 15 16 16 15 16 17 17 18 19 19 19 19 20 20 20 21 22 22 23 23 24 24 24 24 24 24 24 23 23 22 22 22 23 23 25 26 26 26 26 26 27 28 28 29 29 28 26 26 27 28 28
26 27 28 28 28 28 28 28 28 27 27 26 26 25 24 23 22 22 22 20 18 16 13 13 15 16 15 13 12 12 13 12 11 12 14 14 14 14 15 16 16 15 15 16 17 17 18 19 20 21 22 22 22 23 23 24 24 24 24 24 24 24 24 24 24 25 25 25 25 25 25 26 25 25 25 27 27 28 29 28 28 26 26 26 27
26 27 28 27 27 27 27 27 27 26 26 25 24 23 22 21 21 20 20 20 19 17 15 13 13 15 15 13 12 11 12 12 11 11 12 13 14 15 16 16 16 15 15 16 16 17 18 19 20 20 21 22 22 23 23 23 24 23 23 23 24 25 26 27 28 28 27 25 25 25 25 25 26 25 24 25 25 26 27 27 28 27 26 26 27
26 27 26 26 27 27 26 26 26 25 25 24 23 21 20 19 20 20 19 19 18 17 16 15 14 14 13 13 12 11 11 11 11 10 10 12 13 14 15 16 16 17 16 16 17 17 17 18 19 20 20 21 22 24 24 24 24 24 23 23 24 26 28 30 30 30 28 27 26 26 26 25 25 24 24 25 25 25 25 26 27 27 27 27 27
25 25 25 26 26 26 25 25 24 24 23 22 21 20 19 18 18 19 18 18 17 16 16 15 15 15 14 13 12 11 10 11 11 9 9 10 12 13 14 15 15 16 16 16 16 17 17 18 18 19 20 21 22 24 25 25 25 24 24 24 26 28 30 31 31 31 31 30 28 27 26 25 25 24 23 24 24 24 25 25 26 27 27 27 26
24 24 25 25 25 25 25 24 23 22 21 20 19 19 18 18 18 18 17 17 17 16 15 15 14 15 15 15 14 13 11 10 10 10 9 10 11 13 13 14 14 15 16 16 16 16 17 17 18 19 20 21 21 23 24 25 25 25 25 25 27 28 29 31 32 33 32 32 30 28 27 26 25 24 23 23 23 24 25 25 25 25 25 25 25
23 24 24 24 24 24 23 22 21 20 19 18 18 18 17 17 17 17 17 17 16 16 15 14 14 14 15 15 15 16 14 12 11 11 11 12 12 12 13 13 14 14 15 16 16 17 17 17 18 19 20 20 21 22 23 24 25 25 25 24 25 26 28 30 31 32 32 32 31 30 28 27 26 25 25 24 23 23 24 24 24 23 22 23 23
23 23 23 23 23 22 21 19 19 18 18 17 17 17 17 16 16 16 16 16 16 15 15 14 13 13 14 14 14 16 16 14 13 13 13 13 13 13 13 14 14 15 15 16 16 17 17 17 18 19 19 20 21 21 22 23 24 25 25 24 23 24 26 28 30 31 32 32 32 31 30 28 27 26 26 24 23 23 23 22 22 22 21 21 21
22 22 22 22 21 20 18 17 17 17 16 16 16 16 16 16 16 16 16 16 16 15 15 14 13 12 13 14 14 15 16 15 15 15 14 14 14 14 14 14 14 15 16 16 17 17 17 17 17 18 19 20 20 21 21 22 23 24 24 23 23 23 25 27 28 29 30 31 32 32 32 30 28 26 25 24 24 23 23 22 22 21 20 20 19
21 21 20 19 18 17 16 16 16 15 15 15 15 15 16 15 16 16 16 16 16 16 15 14 13 12 12 13 14 15 15 15 16 16 15 15 15 15 14 14 14 15 15 16 17 17 18 17 17 17 18 19 20 20 21 22 23 23 24 23 22 22 23 25 27 28 30 30 31 31 32 31 29 28 26 25 24 24 23 22 21 21 20 19 19
20 19 18 17 16 15 14 14 14 14 14 15 15 15 15 15 16 16 16 16 15 16 15 14 14 13 12 12 13 14 15 15 16 16 16 16 16 15 15 15 15 14 15 16 17 17 18 18 18 17 18 18 19 20 20 21 22 23 23 23 22 21 22 24 26 28 29 30 30 30 31 31 30 29 27 26 24 24 23 22 21 20 19 19 19
18 17 16 15 14 14 13 14 14 14 14 14 14 14 14 15 15 16 16 16 16 16 15 15 15 14 14 13 13 14 14 15 15 16 17 17 17 17 16 16 16 16 16 16 16 17 18 18 18 18 18 18 19 19 19 20 20 21 22 22 22 21 21 22 24 26 27 28 29 29 29 30 30 29 28 26 25 23 22 21 21 20 20 20 20
16 15 14 13 13 13 13 13 14 14 14 14 14 14 14 15 15 16 16 16 16 16 16 16 16 16 15 14 14 14 14 15 16 16 17 17 18 18 18 17 17 17 17 17 17 18 18 19 19 19 19 19 19 19 19 20 20 20 20 21 21 21 20 20 22 24 26 27 28 28 28 28 28 28 27 26 25 23 22 21 20 20 19 19 20
14 14 13 13 13 13 13 13 14 14 14 14 14 14 14 14 15 16 16 17 17 17 17 17 17 17 17 16 16 16 15 16 16 16 17 18 18 19 19 19 19 19 19 18 19 19 19 19 20 20 20 20 20 20 20 20 20 20 20 20 21 21 21 19 20 22 25 26 27 27 27 26 26 26 26 25 25 24 22 21 20 19 18 18 18
13 12 12 12 13 13 13 14 14 14 14 14 15 15 15 16 16 16 17 17 17 17 17 17 17 17 17 17 17 17 17 17 17 17 17 18 19 19 20 21 21 21 21 20 20 20 20 20 21 21 21 21 21 20 20 21 21 20 20 20 20 21 21 20 19 21 23 25 25 26 26 25 25 24 24 24 23 23 23 22 20 19 18 17 17
12 12 12 13 13 13 14 14 15 15 15 15 16 17 17 18 18 17 17 18 17 17 17 18 17 17 17 17 17 17 18 18 18 18 18 19 19 20 21 21 22 22 22 22 22 22 22 22 22 22 22 22 22 21 21 21 21 21 21 20 19 20 20 20 18 19 21 24 25 25 25 25 24 23 23 22 21 21 21 21 20 20 19 17 16
12 12 13 14 14 14 14 15 15 15 16 17 18 18 19 19 19 18 18 18 18 17 18 18 18 17 17 17 17 18 18 18 18 19 19 19 20 21 21 22 22 22 22 22 23 23 23 23 23 23 23 23 23 23 22 22 21 21 22 21 20 19 19 20 18 17 19 22 23 24 24 24 23 22 22 21 20 19 19 19 19 19 19 18 17
13 13 14 14 14 14 15 15 16 16 18 19 19 20 20 19 19 18 18 18 18 18 18 18 17 16 16 17 17 17 17 17 18 18 18 19 19 20 21 22 22 22 22 22 22 22 23 23 23 23 23 24 24 24 24 23 22 22 22 22 21 20 18 18 18 17 17 20 23 23 23 23 23 22 21 20 19 18 18 17 17 17 17 17 17
Wind_Direction
170 163 149 126 80 31 10 358 352 347 344 341 339 337 336 335 333 332 332 332 331 331 331 330 329 328 327 326 325 325 324 324 323 322 322 321 321 320 319 319 318 317 316 316 315 314 313 312 311 310 310 309 308 307 306 304 303 302 301 300 299 297 297 296 294 294 295 295 294 293 294 294 293 293 293 292 292 292 290 289 288 288 289 289 289
175 173 170 134 11 355 349 344 341 340 339 338 336 334 332 331 330 329 329 328 327 328 328 327 327 326 325 325 325 324 323 323 322 321 321 320 320 319 319 318 317 316 315 315 314 313 312 311 311 310 310 309 308 308 307 306 304 303 302 301 299 298 296 295 293 293 294 294 294 293 293 293 292 292 292 291 290 290 289 288 287 286 286 287 287
187 190 205 279 328 336 339 339 338 336 335 333 330 328 326 325 324 324 323 323 323 323 323 323 323 322 322 322 322 322 322 322 322 322 321 320 319 319 318 317 316 316 315 314 314 313 312 312 312 311 311 310 309 308 308 306 305 304 302 301 300 298 297 294 292 291 291 292 293 293 293 292 290 290 291 291 291 290 289 288 287 286 285 284 284
201 213 239 286 316 330 335 334 333 330 328 325 324 323 323 322 321 321 320 320 320 320 319 319 318 318 319 319 320 321 321 322 322 321 320 319 318 317 317 316 315 315 315 314 314 313 312 312 311 311 310 309 308 307 307 306 305 303 302 301 299 298 296 294 291 290 290 290 291 291 291 291 289 288 288 289 289 289 289 289 288 287 286 284 283
214 227 252 288 313 326 330 328 327 325 323 323 322 322 321 321 320 319 319 318 318 317 317 317 317 318 318 319 320 321 321 321 320 319 318 317 316 315 315 314 314 314 314 314 313 313 312 311 310 310 308 307 306 305 304 303 303 302 301 300 299 298 296 295 293 291 289 289 291 292 291 291 290 289 288 288 287 287 288 288 289 288 287 286 284
221 235 260 290 310 319 323 324 324 323 321 321 320 319 319 319 318 318 317 317 317 316 317 316 317 318 318 319 320 319 319 318 317 317 316 315 315 314 314 314 314 313 312 312 312 311 311 310 309 308 306 305 304 303 302 301 300 300 300 300 299 298 297 295 294 292 289 289 290 291 291 291 291 292 292 290 288 287 286 287 287 287 288 288 286
226 241 264 285 299 309 317 321 322 320 318 319 318 318 318 317 317 316 316 316 315 315 315 315 316 317 317 318 318 318 317 316 316 315 315 315 314 314 314 314 313 313 313 312 312 311 309 308 307 305 305 304 303 302 301 301 300 300 300 300 299 298 297 295 294 292 290 289 289 289 290 291 292 293 294 293 290 288 288 289 288 285 286 288 288
231 246 264 278 288 300 310 316 318 318 318 319 320 319 318 317 316 315 315 315 314 314 314 314 315 316 316 316 316 316 315 315 315 315 315 315 315 315 315 315 314 314 314 313 312 310 309 307 306 305 304 303 302 302 302 302 301 300 299 300 299 297 296 295 294 293 292 291 290 290 291 291 290 291 292 292 290 290 291 292 290 287 286 287 286
236 251 264 274 285 295 304 310 315 317 318 320 321 321 319 317 316 315 315 314 313 313 312 313 314 314 314 314 313 313 314 315 315 315 316 316 316 316 316 316 315 314 314 313 312 310 309 308 307 306 305 304 304 304 304 303 302 300 298 298 296 294 293 292 291 291 292 291 291 292 293 291 291 292 293 291 288 288 292 293 292 291 291 290 286
241 254 263 273 284 292 298 303 309 313 315 318 320 321 320 318 316 315 314 313 312 311 311 312 312 312 312 312 312 312 314 315 315 316 317 318 318 317 317 316 315 314 314 313 312 310 310 309 308 308 308 308 307 306 305 304 303 300 297 294 292 291 291 291 290 291 291 289 288 291 292 291 292 296 297 296 294 295 301 303 297 295 295 292 289
244 254 263 273 282 287 292 298 303 308 313 315 317 320 319 317 316 314 313 313 311 310 311 311 311 311 311 311 311 312 314 315 316 316 317 318 318 317 316 315 315 314 314 313 312 311 311 310 311 311 311 310 309 308 307 306 304 300 294 289 286 287 290 293 295 295 293 290 287 287 288 288 290 292 293 293 292 291 294 297 296 295 296 295 294
247 255 262 270 276 281 288 294 299 305 310 313 316 318 318 316 315 314 312 311 310 310 310 311 311 312 311 311 312 313 314 315 316 317 317 318 318 316 315 314 314 314 313 312 312 312 312 312 313 312 312 312 311 311 311 309 306 301 296 292 288 285 286 289 294 295 295 293 290 288 288 290 291 292 292 293 292 289 285 282 282 283 284 285 286
249 255 261 266 271 279 286 292 298 303 308 311 314 316 316 314 313 312 310 309 309 309 310 311 311 311 311 311 312 313 315 316 317 317 318 318 318 317 315 314 314 313 313 312 312 312 313 313 313 314 315 314 315 316 315 313 311 308 306 305 304 302 299 294 293 293 292 290 288 288 290 294 293 293 296 297 296 295 291 287 284 282 279 278 279
251 255 258 263 270 279 287 291 297 302 307 310 312 314 314 312 311 310 309 308 308 309 310 311 311 311 311 312 312 314 316 317 318 318 319 320 319 317 315 314 314 313 312 312 313 314 314 314 315 316 317 317 320 321 318 317 317 316 315 316 317 318 314 307 304 301 293 287 286 288 291 292 291 292 296 297 294 293 293 292 290 287 283 281 281
252 254 256 263 273 282 287 291 297 303 307 310 312 313 312 311 310 308 307 307 308 309 310 311 311 312 312 312 313 314 317 318 318 319 320 320 319 316 315 314 313 313 313 313 314 314 314 315 317 318 318 320 323 322 321 320 317 314 315 317 317 315 312 312 315 312 301 294 292 290 290 290 290 291 294 295 294 293 293 293 291 290 288 285 282
251 253 257 267 277 283 287 292 297 302 307 309 311 311 311 310 308 306 306 306 308 309 310 311 311 311 312 313 313 315 318 319 319 319 320 320 318 316 315 315 314 313 313 314 313 312 313 315 317 317 317 319 321 323 323 315 307 307 310 311 310 307 308 315 319 313 305 300 295 290 289 289 290 291 293 294 292 291 290 288 288 290 290 287 283
251 254 262 273 280 284 288 292 297 301 305 308 310 310 309 308 307 305 306 306 308 309 310 311 311 311 312 313 313 315 317 319 319 319 320 319 318 317 316 315 314 313 313 313 312 311 312 314 315 314 315 318 321 325 322 309 301 302 304 302 302 303 307 314 315 311 309 307 301 298 296 292 289 290 291 291 290 291 289 286 286 287 285 284 284
252 257 268 276 280 284 288 291 295 300 304 307 309 309 308 307 305 305 306 307 308 309 309 310 311 311 312 313 314 315 316 318 318 318 319 319 318 317 316 315 313 313 313 312 311 310 311 312 313 314 315 317 318 315 308 300 296 297 298 299 301 302 305 311 311 309 310 310 307 306 303 297 293 292 292 290 288 286 284 283 285 285 282 281 284
254 261 271 277 282 285 287 289 293 298 302 305 307 307 307 305 304 305 306 307 307 308 309 310 310 311 312 313 314 314 315 316 318 318 319 320 319 317 316 314 312 312 311 310 312 315 315 314 314 314 313 315 313 304 297 295 296 298 300 301 300 300 305 309 310 309 311 312 310 308 304 300 297 296 294 293 289 285 282 280 281 281 280 281 282
256 265 274 279 282 284 285 288 292 297 301 304 305 306 305 304 304 305 306 306 306 307 308 309 309 310 311 311 312 313 314 315 317 319 320 320 318 316 314 311 310 310 312 315 317 317 315 312 312 312 312 313 310 303 301 304 304 302 301 299 298 301 305 308 309 309 309 307 303 300 298 296 296 296 295 294 291 289 286 282 278 277 278 279 279
260 268 275 279 280 282 283 286 291 296 300 302 304 305 305 304 304 305 305 305 306 306 307 308 309 309 309 310 311 312 313 315 317 319 319 318 316 314 312 311 313 314 315 316 313 309 309 311 312 313 314 313 313 312 312 312 304 299 298 297 296 298 302 303 303 301 298 296 296 295 296 298 300 301 300 299 298 295 290 284 279 275 274 275 277
264 270 274 276 277 279 282 286 291 296 300 302 304 305 304 303 304 304 305 305 306 306 307 308 307 307 308 308 309 311 313 315 317 318 317 314 313 313 313 313 314 311 308 307 307 308 309 308 309 314 314 311 313 315 312 305 298 296 296 294 294 295 297 297 295 292 292 294 295 297 300 303 304 305 305 305 306 304 298 292 285 279 274 271 271
265 269 271 273 276 278 282 287 294 298 300 303 304 304 303 303 303 304 304 305 305 306 307 307 306 306 307 307 309 311 314 316 317 316 314 311 312 316 315 313 313 309 305 305 307 308 306 305 311 316 312 305 306 307 301 295 293 293 294 294 294 294 293 291 291 291 291 293 294 297 300 302 303 307 311 313 313 310 305 301 295 289 284 279 275
265 267 270 273 276 280 284 290 295 298 300 302 303 302 302 302 303 303 304 305 305 306 307 306 306 306 307 308 309 312 315 317 317 315 314 314 317 319 318 320 322 317 308 304 304 304 305 308 312 312 306 303 305 304 299 295 294 294 295 296 295 293 291 291 291 291 290 292 294 295 297 300 305 311 315 316 316 313 310 307 304 302 298 293 288
265 268 271 274 278 282 287 291 295 297 299 301 301 301 301 302 302 303 303 304 304 305 306 306 306 307 308 309 310 313 317 318 317 317 318 320 321 321 324 329 328 318 308 306 306 305 305 305 304 303 304 305 304 301 299 299 300 300 300 299 297 297 298 297 294 291 290 292 294 295 298 304 310 313 314 316 317 315 314 313 311 309 306 303 300
266 269 273 277 280 283 287 291 294 297 299 300 300 299 300 301 302 302 303 304 304 305 306 306 307 308 308 309 311 314 317 318 319 321 322 322 323 326 332 335 329 319 311 309 307 306 304 305 305 305 304 302 299 299 301 304 305 305 305 304 303 303 303 300 296 293 293 294 296 299 303 306 307 308 310 313 315 316 317 317 315 312 311 310 306
267 271 275 279 280 284 288 291 295 297 298 298 298 299 300 300 300 302 303 303 304 305 305 306 307 308 308 308 310 312 317 321 323 324 323 325 330 335 337 335 327 318 314 313 313 314 314 314 313 310 307 305 305 306 308 309 309 309 308 308 308 307 306 304 301 298 298 300 301 302 303 304 303 304 305 308 311 314 318 319 315 312 312 312 306
268 273 276 279 281 285 289 292 295 296 296 296 296 297 298 299 300 302 303 303 304 304 304 305 306 306 306 307 310 314 319 324 327 327 328 332 334 334 331 324 317 315 317 319 321 323 324 324 322 320 318 316 316 315 315 315 315 315 314 312 311 309 308 305 303 302 304 306 306 305 306 306 305 304 305 306 306 310 317 320 315 312 312 310 305
270 274 277 281 284 287 290 293 294 294 294 294 295 296 297 297 298 299 299 300 301 302 302 303 305 307 308 310 314 317 320 325 327 326 328 331 329 325 320 313 313 317 322 326 328 331 333 334 331 329 327 325 324 324 323 322 322 321 320 319 317 314 312 311 309 309 309 310 309 308 309 310 311 312 315 313 310 310 314 317 315 314 312 307 303
271 274 279 283 285 287 289 291 292 292 292 293 294 294 294 295 296 298 299 300 301 302 304 305 308 309 309 309 310 310 313 318 320 319 323 326 321 315 310 311 317 322 325 328 332 334 336 336 335 334 334 334 333 333 332 331 330 329 328 328 326 323 320 319 318 317 316 314 314 314 315 316 318 320 320 316 312 311 311 312 312 311 309 305 303
271 274 279 282 284 286 288 289 289 289 290 291 291 291 292 292 294 297 300 301 301 301 302 303 303 302 300 301 303 304 308 311 310 312 320 318 311 307 310 316 323 325 325 330 334 333 333 336 338 340 343 345 346 347 346 344 342 340 338 337 335 333 331 329 327 326 325 324 321 320 320 320 320 320 319 315 314 312 310 310 310 309 307 304 302
271 274 279 282 284 286 286 286 286 286 287 289 289 290 292 293 293 293 294 297 298 299 298 298 298 298 298 299 300 302 306 306 306 310 313 307 304 308 314 320 324 325 325 329 331 331 335 342 346 348 352 353 354 354 353 352 351 349 347 345 344 342 340 338 337 335 333 330 328 327 326 324 322 322 319 317 316 315 312 310 309 308 309 307 303
272 276 280 283 284 285 284 284 285 285 286 287 288 289 292 294 295 294 291 290 293 296 297 296 296 297 300 299 297 298 303 305 306 305 303 302 306 312 317 322 326 326 325 326 329 333 341 348 351 353 355 355 355 354 354 354 352 352 352 351 350 350 347 345 343 339 337 335 334 332 331 329 327 325 322 320 319 318 316 313 309 306 307 307 303
273 278 281 283 283 283 283 282 283 284 285 286 287 289 291 293 295 296 295 292 290 290 291 293 295 297 300 299 296 295 300 304 303 298 298 303 310 315 320 326 327 324 323 328 333 339 344 348 352 354 354 354 353 352 353 353 351 351 353 353 355 356 356 353 350 346 344 342 338 335 333 332 330 327 324 323 322 320 318 317 313 308 304 303 301
275 279 281 281 281 280 281 281 283 284 285 286 287 289 290 291 292 294 297 298 297 294 289 287 289 294 297 298 296 295 301 306 302 296 299 307 315 321 326 328 325 322 327 334 339 343 345 348 352 354 353 354 353 351 350 351 351 351 352 354 358 1 1 0 359 355 350 345 341 338 336 333 331 328 326 324 322 320 320 320 317 313 306 301 299
277 279 279 279 278 278 280 281 282 283 284 286 287 287 288 289 290 292 295 297 298 299 298 293 290 292 297 300 300 301 306 308 303 299 304 314 321 326 328 328 327 332 338 342 345 349 350 350 352 352 353 354 354 352 350 349 349 350 352 356 2 5 6 5 3 358 352 347 343 341 339 335 333 331 328 324 323 322 321 321 321 319 313 306 302
277 277 277 277 278 279 280 281 282 283 285 285 286 286 286 288 289 292 294 295 297 299 299 297 294 293 296 299 300 301 306 307 305 307 315 320 322 325 327 328 332 338 342 345 348 350 351 350 351 351 352 355 356 354 352 349 349 350 353 358 5 8 7 5 2 358 353 351 348 346 343 339 336 334 331 327 325 325 325 324 324 323 318 314 310
276 276 276 276 278 280 281 282 283 284 285 285 285 286 287 287 289 291 293 295 297 298 298 297 296 295 296 297 298 300 302 302 301 306 314 319 320 323 327 332 335 338 341 346 349 351 352 351 350 351 352 354 356 356 353 351 350 350 352 359 6 8 6 2 0 358 356 354 351 349 347 344 341 339 335 332 330 329 328 327 326 324 321 319 317
274 274 275 277 279 280 281 282 284 284 284 284 284 285 286 287 288 291 293 295 297 297 296 297 296 295 296 298 300 301 301 300 301 305 313 321 324 326 329 334 337 339 342 348 352 354 355 353 351 352 352 353 355 356 354 352 350 350 354 1 6 6 3 1 360 359 357 354 353 352 351 349 347 343 341 339 336 333 331 330 328 326 324 322 320
272 274 276 277 279 280 281 282 283 282 282 283 283 284 286 286 288 290 293 294 295 295 295 296 295 294 295 299 302 303 305 308 312 314 317 322 324 326 329 334 337 340 343 347 351 355 356 355 353 353 353 353 354 355 355 352 349 349 353 2 6 6 4 3 2 0 358 356 354 354 353 352 350 347 346 345 342 338 335 331 328 327 327 325 322
272 275 277 278 278 280 281 282 282 281 281 282 282 283 284 285 287 290 292 293 294 294 295 295 294 293 294 297 299 301 305 311 314 314 315 317 319 323 328 332 336 338 341 343 346 349 352 353 353 352 352 352 353 354 354 353 350 348 350 357 3 5 5 4 3 1 359 357 357 357 356 355 354 352 350 348 345 341 338 335 332 332 331 330 328
273 275 277 277 278 280 281 281 280 280 280 281 281 281 282 284 286 289 290 292 293 294 294 295 294 292 292 294 294 295 299 304 306 307 308 310 313 318 323 327 331 334 337 338 340 341 343 347 349 349 349 349 350 351 352 351 350 347 347 352 358 2 2 2 2 360 358 358 359 359 358 357 355 354 352 350 349 347 346 343 340 339 337 337 337
274 275 275 275 277 278 278 277 278 278 278 279 279 280 282 284 286 288 290 291 292 293 294 295 296 293 290 289 289 290 293 295 298 300 302 304 307 311 315 319 324 328 330 330 331 333 335 338 342 344 345 344 345 348 349 349 347 346 345 348 353 357 359 359 358 357 356 356 358 0 360 358 356 355 354 354 354 353 352 351 348 346 345 347 348
273 273 273 273 273 274 272 272 272 273 274 277 277 278 281 283 285 287 289 290 291 292 294 296 297 296 292 288 287 288 289 290 292 294 296 298 301 304 307 310 315 318 321 322 323 324 327 330 333 337 339 340 341 344 345 346 345 344 342 343 346 351 355 357 355 354 352 352 355 358 359 358 357 356 355 356 357 356 356 357 355 354 355 358 358
269 268 267 267 266 266 265 266 268 269 272 274 276 278 280 283 286 287 289 291 292 292 294 296 297 296 294 292 289 288 287 288 288 289 291 294 297 299 301 303 307 310 312 314 315 317 320 323 325 329 331 334 336 338 339 341 342 342 341 340 341 346 352 354 353 350 349 349 351 354 356 357 357 356 355 356 356 357 358 360 359 359 0 360 358
263 261 260 259 259 261 262 263 267 270 273 274 276 279 281 284 287 288 290 292 292 293 294 295 295 294 294 295 293 290 289 289 288 288 289 291 293 295 296 298 301 303 306 308 310 312 315 317 319 322 324 326 328 331 333 335 337 339 340 339 338 339 344 349 350 349 347 347 348 349 351 354 355 355 355 355 354 355 358 360 1 2 2 359 356
256 255 255 255 257 260 263 265 268 271 273 275 278 281 283 285 287 289 290 291 292 293 294 294 293 293 293 294 294 293 292 291 290 290 290 290 291 293 294 295 296 298 300 303 305 307 309 311 313 315 317 319 321 323 326 328 330 333 335 336 336 336 337 342 348 350 348 346 345 346 347 350 352 353 353 354 353 354 356 358 359 360 360 358 357
251 250 252 256 259 261 264 266 268 271 273 276 279 282 284 286 286 287 288 289 290 292 293 293 292 292 293 293 294 295 294 294 294 293 292 292 293 293 294 295 295 295 296 298 300 302 304 306 308 309 311 313 315 316 318 320 323 326 328 331 333 333 332 335 346 352 350 346 344 343 343 346 348 349 350 352 353 355 357 357 357 358 358 357 358
248 250 253 257 259 262 265 266 268 271 275 279 282 284 285 286 286 286 286 287 288 290 290 289 289 290 291 292 293 293 294 295 295 295 294 295 295 295 295 295 295 295 295 296 297 298 300 302 303 304 306 308 309 311 312 314 316 319 321 324 329 330 328 330 340 348 347 344 344 343 342 342 344 347 348 349 351 354 357 359 0 0 360 360 0
246 250 254 257 259 262 264 266 270 275 279 282 285 286 286 286 285 285 285 285 286 286 285 285 286 288 289 291 292 293 293 294 295 295 296 297 297 297 297 296 296 296 297 297 297 298 298 299 300 301 302 302 304 305 306 308 310 312 315 318 322 325 326 327 330 337 341 341 342 343 343 341 341 343 346 347 348 352 356 360 2 3 4 5 6
246 249 253 256 259 262 266 270 275 280 283 284 286 287 286 285 285 285 284 284 285 283 282 282 284 287 289 291 292 293 294 295 295 296 297 298 298 298 298 298 299 299 299 299 299 300 299 299 299 299 299 299 300 301 301 302 304 306 309 312 316 319 323 323 322 326 335 338 338 339 343 343 341 342 344 345 346 350 355 357 360 2 4 6 9